Погода в Буре

Россия / Иркутская область     58°48′46″N   106°59′47″E
темп.,
°C
ветер,
м/с
пор.,
м/с
влажн.,
%
обл.,
%
осадки,
мм/ч
давл.,
гПа
погр.,
м
18 мая, вт
вт1823:00−2сз115246 0.0 101011
02:00−4ссз11595 0.0 101010
05:00−4з115586 0.0 101010
08:00+1зсз4634100 0.0 10092206
11:00+3сз4627100 0.0 10072816
14:00+5сз5725100 0.0 10063222
17:00+4ссз5729100 0.0 10052260
20:00+2с353924 0.0 1004298
19 мая, ср
ср1923:00−3с2258100 0.0 100511
02:00−3сз1162100 0.0 100625
05:00−4сз2769100 0.0 1006360
08:00−1сз4751100 0.0 10061259
11:00+1сз3545100 0.0 10061756
14:00+3сз3442100 0.1 10061716
17:00+4ссз3440100 0.0 10061839
20:00+3с255258 0.0 1007204
20 мая, чт
чт2023:00−2ссз11755 0.0 100910
02:00−3с11825 0.0 100910
05:00−3с22806 0.0 101029
08:00+3св354230 0.0 1010970
11:00+7св342948 0.0 10102115
14:00+9св342697 0.0 10112533
17:00+10св45255 0.0 10102434
20:00+7всв363835 0.0 1012152
21 мая, пт
пт2123:00+2в27486 0.0 1014115
02:00−1всв2557100 0.0 101589
05:00−1св31058100 0.0 1015202
08:00+5всв51134100 0.0 1014999
11:00+9всв6922100 0.0 10121692
14:00+11св6821100 0.0 10101998
17:00+12св5822100 0.0 10092355
20:00+9св4933100 0.0 1010388
22 мая, сб
сб2223:00+4св2849100 0.0 1011151
02:00+2ссв2854100 0.0 1011162
05:00+1с2959100 0.0 1012170
08:00+7с464157 0.0 1011513
11:00+12с462893 0.0 10102697
14:00+13с453292 0.0 10092551
17:00+13сз553663 0.0 10082424
20:00+10ссз364619 0.0 1009258